Regional Weather Roundup
Issued by NWS

Home | Current Version | Previous Version | Graphics & Text | Print | Product List | Glossary On
Versions: 1 2 3 4 5 6 7 8 9 10 11 12 13 14 15 16 17 18 19 20 21 22 23 24 25 26 27 28 29 30 31 32 33 34 35 36 37 38 39 40 41 42 43 44 45 46 47 48 49 50
424
ASUS45 KABQ 150110
RWRNM
NEW MEXICO REGIONAL WEATHER ROUNDUP
NATIONAL WEATHER SERVICE ALBUQUERQUE NM
600 PM MST THU DEC 14 2017

NOTE: "FAIR" MEANS FEW OR NO CLOUDS BELOW 12,000 FEET AGL WITH NO
       SIGNIFICANT WEATHER OR OBSTRUCTIONS TO VISION.

      THIS PRODUCT IS RELEASED AS TWO VERSIONS.  ONE VERSION NEAR
      THE TOP OF THE HOUR CONTAINING PRELIMINARY DATA FROM ALBUQUERQUE
      AND OTHER STATIONS.  A FINAL VERSION WITH ADDITIONAL DATA IS
      ISSUED ABOUT 10 MINUTES AFTER THE HOUR.

NMZ501-503-504-510>518-150200-
NORTHWEST PLATEAU/NORTHCENTRAL MOUNTAINS

CITY           SKY/WX    TMP DP  RH WIND       PRES   REMARKS
FARMINGTON     FAIR      40  20  44 W9        30.14F WCI  34
LOS ALAMOS     MOCLDY    34  13  43 S7        30.20R WCI  28
SANTA FE       FAIR      31  15  52 E6        30.19R WCI  25
TAOS           CLOUDY    33  11  39 W10G21    30.21R WCI  25
ANGEL FIRE     CLOUDY    30  13  49 CALM      30.18R

$$
NMZ402-403-502-505>509-150200-
WESTCENTRAL MOUNTAINS/SOUTHWEST MOUNTAINS

CITY           SKY/WX    TMP DP  RH WIND       PRES   REMARKS
GALLUP         FAIR      38  21  50 NE13      30.21R WCI  30
GRANTS         FAIR      30  18  60 N6        30.21R WCI  24
SILVER CITY    FAIR      43  15  31 E8        30.08R

$$
NMZ407-409-411-412-150200-
SOUTHERN DESERTS

CITY           SKY/WX    TMP DP  RH WIND       PRES   REMARKS
DEMING         FAIR      53  14  21 NE13      30.07R
LAS CRUCES     FAIR      50  17  27 SE10      30.09R
HOLLOMAN AFB   FAIR      46  17  31 SW8       30.11R
ALAMOGORDO     FAIR      48  16  27 NW5       30.10R
T OR C         FAIR      48  15  26 N16       30.11R

$$
NMZ519>523-150200-
CENTRAL VALLEYS/CENTRAL HIGHLANDS

CITY           SKY/WX    TMP DP  RH WIND       PRES   REMARKS
ALBUQUERQUE    FAIR      40  14  34 E9        30.17R WCI  34
DOUBLE EAGLE   CLEAR     30   9  40 CALM      30.19R
MORIARTY ARPT  FAIR      31  15  52 SE5       30.22R WCI  26
CLINES CORNERS FAIR      27  14  58 E6        30.20R WCI  20
BELEN          FAIR      38  10  32 NW3       30.18R
SOCORRO        FAIR      41  12  29 NW5       30.15R

$$
NMZ524>526-539-540-150200-
SOUTHCENTRAL MOUNTAINS

CITY           SKY/WX    TMP DP  RH WIND       PRES   REMARKS
RUIDOSO        FAIR      30  12  47 E6        30.20R WCI  24

$$
NMZ527>531-150200-
NORTHEAST HIGHLANDS/NORTHEAST PLAINS

CITY           SKY/WX    TMP DP  RH WIND       PRES   REMARKS
LAS VEGAS      CLOUDY    27  14  58 S8        30.21R WCI  19
RATON          CLOUDY    30  18  60 NE10      30.21R WCI  21
CLAYTON        CLOUDY    35  24  64 N10       30.23R WCI  27

$$
NMZ532>537-150200-
EASTCENTRAL PLAINS

CITY           SKY/WX    TMP DP  RH WIND       PRES   REMARKS
SANTA ROSA     CLOUDY    39  17  40 E5        30.22R
TUCUMCARI      CLOUDY    40  24  53 NE9       30.22R WCI  34
CANNON AFB     PTCLDY    36  25  62 NE9       30.23R WCI  29
CLOVIS AIRPORT FAIR      36  25  64 NE7       30.23R WCI  30

$$
NMZ028-029-538-150200-
SOUTHEAST PLAINS

CITY           SKY/WX    TMP DP  RH WIND       PRES   REMARKS
ROSWELL        FAIR      42  20  41 N8        30.19R
ARTESIA        FAIR      45  18  33 NE9       30.18R
CARLSBAD       FAIR      44  23  43 NE8       30.15R
HOBBS          CLEAR     39  18  41 NE8       30.18R WCI  34


$$




USA.gov is the U.S. government's official web portal to all federal, state and local government web resources and services.